sat.trackr.live / text

‹ back to catalog

STARLINK-31533

NORAD 59505 · 2024-071X

PAYLOAD ACTIVE UNKNOWN

§ Identity

Operator
Country
US
Launch date
2024-04-13
Launch site
AFETR
Launch vehicle
Mass (kg)
RCS (m²)

Purposes: comms

External: N2YO · Heavens-Above · Gunter

§ Orbital elements

Epoch: 2026-09-20T12:01:22.740096Z

Period
94.27 min
Inclination
43.0022°
Eccentricity
0.0001356
Mean motion
15.27578828 rev/d
Perigee alt
482.1 km
Apogee alt
484.0 km
Semi-major
6,861.2 km
B*
2.6290e-5
RAAN
320.0528°
Arg perigee
271.3680°
Mean anomaly
88.7017°
Rev number
13,799

§ Raw data

STARLINK-315331 59505U 24071X   26263.50095764  .00000461  00000+0  26290-4 0  99962 59505  43.0022 320.0528 0001356 271.3680  88.7017 15.27578828137992

JSON: /api/v1/satellites/59505 · /tle

For live sub-satellite position, see the globe view (requires WebGL).

§ Visibility from observer

Set your observer location to see the next 7 days of passes ≥ 10°. The values pass through the URL so the page stays shareable.

No JS? Fill the form by hand. The geolocation button needs JavaScript.